#timestamp,LO_Frequency,Hit,StdDev 
1666605615.0,286047000.0,P
1666605615.9,286047000.0,N
1666605635.8,286046999.8,N
1666605655.6,286047000.5,N
1666605675.4,286047000.9,N
1666605695.3,286047000.9,N
1666605715.1,286046998.1,N
1666605735.8,286046998.9,N
1666605755.7,286046999.0,N
1666605775.5,286047001.0,N
1666605795.3,286047001.2,N
1666605815.2,286046999.9,N
1666605835.0,286046998.1,N
1666605835.9,286046998.1,N
1666605855.8,286046998.3,N
1666605875.6,286047001.1,N
1666605895.4,286046998.2,N
1666605915.3,286046998.6,N
1666605935.1,286046999.9,N
1666605955.9,286047000.1,N
1666605975.7,286047000.3,N
1666605995.5,286047002.7,N
1666606015.4,286047000.6,N
1666606035.2,286047002.8,N
1666606055.0,286047002.0,N
1666606055.9,286047002.0,N
1666606075.8,286047002.1,N
1666606095.6,286046999.7,N
1666606115.4,286047000.5,N
1666606135.3,286047000.9,N
1666606155.1,286047000.4,N
1666606175.9,286047000.6,N
1666606195.7,286047000.1,N
1666606215.5,286047000.1,N
1666606235.4,286047002.4,N
1666606255.2,286047002.0,N
1666606275.0,286047002.8,N
1666606276.0,286047002.8,N
1666606295.8,286047000.0,N
1666606315.6,286047002.2,N
1666606335.5,286047003.8,N
1666606355.3,286047004.1,N
1666606375.1,286047004.3,N
1666606395.9,286047002.0,N
1666606415.7,286047001.6,N
1666606435.5,286047002.2,N
1666606455.4,286047001.8,N
1666606475.2,286047001.9,N
1666606495.1,286047002.0,N
1666606496.0,286047002.0,N
1666606515.8,286047002.0,N
1666606535.6,286047001.5,N
1666606555.5,286047001.6,N
1666606575.3,286047003.8,Y
1666606595.2,286047001.6,P
1666606615.9,286047002.5,P
1666606635.7,286047002.5,P
1666606655.6,286047002.7,Y
1666606675.4,286047001.0,P
1666606695.2,286046999.2,N
1666606715.1,286046997.2,N
1666606716.0,286046997.2,N
1666606735.8,286046996.9,N
1666606755.7,286046999.6,N
1666606775.5,286046997.0,N
1666606795.3,286046996.5,N
1666606815.2,286046996.5,N
1666606835.0,286046999.2,N
1666606835.9,286046999.2,N
1666606855.7,286046999.6,N
1666606875.6,286046996.9,N
1666606895.4,286046996.9,N
1666606915.3,286046999.5,N
1666606935.1,286047001.1,N
1666606936.0,286047001.1,N
1666606955.8,286047000.8,N
1666606975.7,286046998.6,N
1666606995.5,286046999.3,N
1666607015.3,286046999.0,N
1666607035.2,286046999.6,N
1666607055.0,286047001.0,N
1666607055.9,286047001.0,N
1666607075.8,286047000.2,N
1666607095.6,286046998.6,N
1666607115.4,286046998.4,N
1666607135.3,286046999.3,N
1666607155.1,286046998.5,N
1666607175.8,286046998.2,N
1666607195.7,286046998.8,N
1666607215.5,286046999.7,N
1666607235.3,286046999.8,N
1666607255.2,286046998.7,N
1666607275.0,286047001.1,N
1666607275.9,286047001.1,N
1666607295.8,286046999.3,N
1666607315.6,286046998.1,N
1666607335.4,286047000.3,N
1666607355.3,286047000.7,N
1666607375.1,286047000.9,N
1666607395.8,286046998.1,N
1666607415.7,286046998.1,N
1666607435.5,286046999.0,N
1666607455.4,286046998.4,N
1666607475.2,286046998.5,N
1666607495.0,286046999.9,N
1666607495.9,286046999.9,N
1666607515.8,286046998.1,N
1666607535.6,286046999.0,N
1666607555.4,286046999.1,N
1666607575.3,286046998.9,N
1666607595.1,286046998.5,N
1666607615.9,286046998.6,N
1666607635.7,286046998.6,N
1666607655.5,286047001.0,N
1666607675.4,286047001.0,N
1666607695.2,286047000.8,N
1666607715.0,286046998.5,N
1666607715.9,286046998.5,N
1666607735.8,286047001.1,N
1666607755.6,286047001.1,N
1666607775.5,286047000.1,N
1666607795.3,286047000.5,N
1666607815.1,286046998.2,N
1666607835.9,286047000.6,N
1666607855.7,286046999.9,N
1666607875.5,286046998.9,N
1666607895.4,286047000.9,N
1666607915.2,286046998.5,N
1666607935.1,286047000.9,N
1666607936.0,286047000.9,N
1666607955.8,286047000.4,N
1666607975.6,286046999.7,N
1666607995.5,286046999.8,N
1666608015.3,286047000.0,N
1666608035.1,286047002.8,N
1666608055.9,286046999.9,N
1666608075.7,286047001.0,N
1666608095.6,286046999.7,N
1666608115.4,286047002.4,N
1666608135.2,286047001.6,N
1666608155.1,286047002.5,N
1666608156.0,286047002.5,N
1666608175.8,286047002.5,N
1666608195.7,286047004.1,Y
1666608215.5,286047001.3,P
1666608235.3,286047002.5,P
1666608255.2,286047000.2,N
1666608275.9,286047001.3,N
1666608295.7,286047002.6,Y
1666608315.6,286047000.8,P
1666608335.4,286047001.1,P
1666608355.3,286046998.2,P
1666608375.1,286047000.9,N
1666608376.0,286047000.9,N
1666608395.8,286047000.9,N
1666608415.7,286047000.6,N
1666608435.5,286047001.0,N
1666608455.3,286047001.2,N
1666608475.2,286046998.4,N
1666608495.0,286047000.3,N
1666608495.9,286047000.3,N
1666608515.8,286047002.7,N
1666608535.6,286047001.6,N
1666608555.4,286047002.5,N
1666608575.3,286046999.8,N
1666608595.1,286047002.3,N
1666608615.8,286046999.9,N
1666608635.7,286047001.6,N
1666608655.5,286047002.5,N
1666608675.3,286046999.9,N
1666608695.2,286047002.6,N
1666608715.0,286047002.2,N
1666608715.9,286047002.2,N
1666608735.8,286047004.1,Y
1666608785.6,286047001.9,E
1666608795.6,286046999.7,N
1666608815.4,286046998.3,P
1666608835.2,286046999.6,N
1666608855.1,286046997.7,Y
1666608856.0,286046997.7,P
1666608875.8,286046999.0,N
1666608895.6,286046998.8,N
1666608915.5,286046998.4,N
1666608935.3,286046998.8,N
1666608955.2,286046998.2,Y
1666608975.9,286047000.7,P
1666608995.7,286047001.1,N
1666609015.6,286047000.7,N
1666609035.4,286047000.5,N
1666609055.2,286046998.1,N
1666609075.1,286046998.7,N
1666609076.0,286046998.7,N
1666609095.8,286047000.0,N
1666609115.7,286046999.8,N
1666609135.5,286047002.3,N
1666609155.3,286047001.1,N
1666609175.2,286046999.7,N
1666609195.0,286047000.5,N
1666609195.9,286047000.5,N
